Regional Weather Roundup
Issued by NWS

Home | Current Version | Previous Version | Graphics & Text | Print | Product List | Glossary On
Versions: 1 2 3 4 5 6 7 8 9 10 11 12 13 14 15 16 17 18 19 20 21 22 23 24 25 26 27 28 29 30 31 32 33 34 35 36 37 38 39 40 41 42 43 44 45 46 47 48 49 50
000
ASUS43 KDTX 220810
RWRMI
MICHIGAN HOURLY REGIONAL WEATHER ROUNDUP
NATIONAL WEATHER SERVICE DETROIT/PONTIAC MI
ISSUED BY NATIONAL WEATHER SERVICE GRAND RAPIDS MI
300 AM EST WED FEB 22 2017

NOTE: "FAIR" INDICATES FEW OR NO CLOUDS BELOW 12,000 FEET WITH NO
SIGNIFICANT WEATHER AND/OR OBSTRUCTION TO VISIBILITY.

MIZ047>049-052>055-059>063-066>070-074>076-081>083-220900-
SOUTHEAST LOWER MICHIGAN

CITY           SKY/WX    TMP DP  RH WIND       PRES   REMARKS
ADRIAN         FOG       43  43 100 W3        29.88F VSB 1
ALMA           DRZL/FOG  45  45  98 S5        29.84F VSB 1/4
ANN ARBOR      FOG       37  37 100 CALM      29.87F VSB 1/4
BAD AXE        FOG       42  42 100 S3        29.85F VSB<1/4
DETROIT CITY   CLOUDY    48  47  96 S3        29.88F FOG
DETROIT        FOG       44  43  96 CALM      29.88F VSB 3/4
FLINT          FOG       38  38 100 CALM      29.85F VSB 1/4
GROSSE ILE     FOG       38  37  99 CALM      29.87F VSB 1/4
HILLSDALE      MOCLDY    46  46 100 S6        29.87S FOG
HOWELL         FOG       39  38  97 CALM      29.86F VSB 1/4

CITY           SKY/WX    TMP DP  RH WIND       PRES   REMARKS
JACKSON        LGT RAIN  42  40  92 W3        29.86F FOG
LANSING        FOG       44  41  89 S5        29.86S VSB 1/4
MASON          FOG       40  40 100 CALM      29.86F VSB 1/2
MONROE         FOG       40  40 100 CALM      29.87F VSB<1/4
MT. CLEMENS    PTCLDY    36  36 100 CALM      29.86F FOG
PONTIAC        FOG       38  35  89 CALM      29.86F VSB 1/4
PORT HOPE        N/A     40  40 100 SW5       29.82F
PORT HURON     FOG       37  37 100 CALM      29.88F VSB<1/4
TRI CITIES     FOG       47  47 100 S7        29.83F VSB<1/4
YPSILANTI      FOG       40  40 100 CALM      29.88F VSB 1/4
$$
MIZ043>046-050>051-056>058-064>065-071>073-077>080-220900-
SOUTHWEST LOWER MICHIGAN

CITY           SKY/WX    TMP DP  RH WIND       PRES   REMARKS
BATTLE CREEK   FOG       45  45 100 S5        29.86F VSB 1/2
BENTON HARBOR  FOG       45  44  97 CALM      29.85S VSB 1/2
BIG RAPIDS     FOG       42  41  96 S3        29.82S VSB 1/4
COLDWATER      CLOUDY    44  44 100 S3        29.86F FOG
HOLLAND        FOG       47  46  97 S6        29.84F VSB 1
GRAND RAPIDS   FOG       43  41  93 S7        29.83F VSB 1/4
KALAMAZOO      FOG       48  45  89 S5        29.86S VSB 3/4
MARSHALL       FOG       40  39  98 CALM      29.86F VSB 1/2
MOUNT PLEASANT FOG       44  43  98 SE3       29.82F VSB 1/4
MUSKEGON       FOG       49  47  93 SE3       29.83S VSB 1/4
STURGIS        CLOUDY    47  47  97 CALM      29.86F FOG
$$
MIZ016>042-220900-
NORTHERN LOWER MICHIGAN

CITY           SKY/WX    TMP DP  RH WIND       PRES   REMARKS
ALPENA         CLOUDY    41  40  96 CALM      29.81F
BEAVER ISLAND  MOCLDY    45  37  74 SW10      29.78S
BELLAIRE       MOCLDY    40  37  87 CALM      29.79F
CADILLAC       CLEAR     40  38  95 SW6       29.80S
CHARLEVOIX     CLOUDY    47  37  66 CALM      29.81F
GAYLORD        MOCLDY    43  36  76 S3        29.79F
HOUGHTON LAKE  FOG       36  35  96 CALM      29.81S VSB 1/2
MANISTEE       CLOUDY    47  44  90 VRB3      29.79S
OSCODA         FOG       41  40  97 S9        29.81F VSB 3/4
PELLSTON       MOCLDY    35  32  88 VRB3      29.79S
TRAVERSE CITY  PTCLDY    49  35  58 S5        29.76F
LUDINGTON      FOG       49  49 100 S6        29.79F VSB 1
$$
MIZ007>008-015-220900-
EASTERN UPPER MICHIGAN

CITY           SKY/WX    TMP DP  RH WIND       PRES   REMARKS
KINROSS        CLOUDY    33  33 100 E5        29.78F WCI  29
MACKINAC ISLAN PTCLDY    35  35 100 S5        29.77F WCI  31
NEWBERRY       CLOUDY    38  37  97 S15       29.75S WCI  30
S. S. MARIE    FOG       35  33  92 E5        29.78F VSB 1/2 WCI  31
$$
MIZ004>006-011>014-085-220900-
CENTRAL UPPER MICHIGAN

CITY           SKY/WX    TMP DP  RH WIND       PRES   REMARKS
MANISTIQUE     FOG       37  37  97 S7G16     29.74F VSB 1/4 WCI  32
ESCANABA       LGT RAIN  40  37  89 S5        29.73F
MENOMINEE      CLOUDY    47  36  65 SW7       29.73F
SAWYER-GWINN   DRIZZLE   41  38  88 S9        29.70F
$$
MIZ001>003-009>011-084-220900-
WESTERN UPPER MICHIGAN

CITY           SKY/WX    TMP DP  RH WIND       PRES   REMARKS
IRON MOUNTAIN  CLOUDY    41  33  73 CALM      29.69F
HOUGHTON       CLOUDY    43  30  60 SW5       29.64S
COPPER HARBOR    N/A     42  32  67 CALM      29.63F
IRONWOOD       CLOUDY    47  39  74 SW6       29.67S
$$

ABBREVIATIONS USED IN REMARKS
   TC - TEMPERATURE IN CELSIUS
  WCI - WIND CHILL INDEX
   HX - HEAT INDEX
  VSB - VISIBILITY





USA.gov is the U.S. government's official web portal to all federal, state and local government web resources and services.